Flag for Germany Weather past 2 weeks in Bremerhaven, Bremen, Germany

Now
45 °F

Scattered clouds.


Feels Like: 37 °F
Forecast: 38 / 45 °F
Wind: 16 mph from Southwest

Location: Nordholz

Current Time: Feb 28, 2015 at 2:01:51 PM

Latest Report: Feb 28, 2015 at 1:20 PM


Visibility: N/A

Pressure: 29.98 "Hg

Humidity: 61%

Dew point: 32 °F

Location of BremerhavenLocation

Historic Weather in Bremerhaven — Graph

°F

Bremerhaven temperature yesterday

Maximum temperature yesterday: 43 °F (at 11:20 AM)
Minimum temperature yesterday: 37 °F (at 7:20 PM)
Average temperature yesterday: 41 °F

Past Weeks' High & Low Weather Summary

 TemperatureHumidityPressure
High46 °F (Feb 26, 1:20 PM)100% (Feb 14, 1:20 AM)30.66 "Hg (Feb 14, 1:20 AM)
Low27 °F (Feb 17, 6:20 AM)61% (Feb 19, 2:20 PM)29.24 "Hg (Feb 21, 8:20 AM)
Average37 °F88%29.93 "Hg
* Reported Feb 13 12:20 PM — Feb 28 12:20 PM, Bremerhaven, Weather by CustomWeather, © 2015

Note: Actual official high and low records may vary slightly from our data, if they occured in-between our weather recording intervals... More about our weather records

Advertising

Bremerhaven weather history for previous 24 hours

 ConditionsComfort  
Time TempWeatherWind HumidityBarometerVisibility
12:20 PM
Sat, Feb 28
43 °FPartly sunny.16 mph71%30.01 "HgN/A
11:20 AM41 °FPartly sunny.13 mph76%30.01 "HgN/A
10:20 AM39 °FPartly sunny.12 mph81%30.04 "HgN/A
9:20 AM36 °FPassing clouds.9 mph87%30.04 "Hg5 mi
8:20 AM32 °FPartly sunny.8 mph100%30.07 "Hg4 mi
7:46 AM32 °FIce fog.8 mph93%30.07 "Hg3 mi
7:20 AM30 °FIce fog.7 mph100%30.07 "Hg3 mi
6:59 AM30 °FIce fog.7 mph100%30.07 "Hg3 mi
6:20 AM30 °FPassing clouds.7 mph100%30.07 "HgN/A
5:20 AM30 °FPassing clouds.7 mph100%30.07 "HgN/A
4:20 AM32 °FPassing clouds.7 mph100%30.07 "HgN/A
3:20 AM32 °FPassing clouds.6 mph100%30.07 "HgN/A
2:20 AM34 °FPassing clouds.7 mph93%30.07 "HgN/A
1:20 AM34 °FPassing clouds.6 mph93%30.07 "HgN/A
12:20 AM36 °FPassing clouds.6 mph93%30.07 "HgN/A
11:20 PM
Fri, Feb 27
37 °FPassing clouds.7 mph93%30.07 "HgN/A
10:20 PM37 °FPassing clouds.9 mph93%30.07 "HgN/A
9:20 PM37 °FPassing clouds.12 mph93%30.07 "HgN/A
8:20 PM37 °FPassing clouds.8 mph87%30.04 "HgN/A
7:20 PM37 °FPassing clouds.8 mph87%30.04 "HgN/A
6:20 PM39 °FPassing clouds.8 mph87%30.01 "HgN/A
5:20 PM41 °FPartly sunny.12 mph81%29.98 "HgN/A
5:00 PM41 °FPartly sunny.13 mph81%29.98 "HgN/A
4:20 PM43 °FBroken clouds.14 mph81%29.98 "HgN/A
3:20 PM43 °FPartly sunny.18 mph76%29.95 "HgN/A
2:20 PM43 °FPartly sunny.17 mph81%29.92 "HgN/A
Weather by CustomWeather, © 2015

See weather overviewHow to use our weather pages